Regional Weather Roundup
Issued by NWS

Home | Current Version | Previous Version | Graphics & Text | Print | Product List | Glossary On
Versions: 1 2 3 4 5 6 7 8 9 10 11 12 13 14 15 16 17 18 19 20 21 22 23 24 25 26 27 28 29 30 31 32 33 34 35 36 37 38 39 40 41 42 43 44 45 46 47 48 49 50
000
ASUS45 KABQ 252201
RWRNM
WEATHER ROUNDUP FOR NEW MEXICO
NATIONAL WEATHER SERVICE ALBUQUERQUE NM
400 PM MDT FRI JUL 25 2014

NOTE: "FAIR" MEANS FEW OR NO CLOUDS BELOW 12,000 FEET AGL WITH NO
       SIGNIFICANT WEATHER OR OBSTRUCTIONS TO VISION.

      THIS PRODUCT IS RELEASED AS TWO VERSIONS.  ONE VERSION NEAR
      THE TOP OF THE HOUR CONTAINING PRELIMINARY DATA FROM ALBUQUERQUE
      AND OTHER STATIONS.  A FINAL VERSION WITH ADDITIONAL DATA IS
      ISSUED ABOUT 10 MINUTES AFTER THE HOUR.

NMZ501-503-504-510>518-252300-
NORTHWEST PLATEAU/NORTHCENTRAL MOUNTAINS

CITY           SKY/WX    TMP DP  RH WIND       PRES   REMARKS
FARMINGTON     MOSUNNY   95  42  16 NW13G22   30.12F
LOS ALAMOS       N/A     85  43  23 W6        30.28F
SANTA FE       MOSUNNY   90  42  18 W14G22    30.18F
TAOS           MOSUNNY   90  41  18 SW7G20    30.24F
ANGEL FIRE     FAIR      80  43  26 W9G25     30.36F

$$
NMZ402-403-502-505>509-252300-
WESTCENTRAL MOUNTAINS/SOUTHWEST MOUNTAINS

CITY           SKY/WX    TMP DP  RH WIND       PRES   REMARKS
GALLUP         MOSUNNY   89  38  16 VRB3      30.22F
GRANTS         MOSUNNY   87  37  17 CALM      30.24F

$$
NMZ407-409-411-412-252300-
SOUTHERN DESERTS

CITY           SKY/WX    TMP DP  RH WIND       PRES   REMARKS
LORDSBURG      FAIR      99  43  14 SE10G22   30.04F
DEMING         MOSUNNY   97  43  15 CALM      30.04F
LAS CRUCES     SUNNY     98  40  13 E8        30.08F
HOLLOMAN AFB   SUNNY     98  44  15 VRB6      30.02F
T OR C         SUNNY     97  39  13 W8        30.08F

$$
NMZ519>523-252300-
CENTRAL VALLEYS/CENTRAL HIGHLANDS

CITY           SKY/WX    TMP DP  RH WIND       PRES   REMARKS
ALBUQUERQUE    MOSUNNY   94  40  15 VRB3      30.11F
DOUBLE EAGLE   MOSUNNY   93  41  16 SW9       30.16F
CLINES CORNERS SUNNY     87  40  19 NW10      30.24F
BELEN          FAIR      95  43  16 E5        30.10F
SOCORRO        FAIR      98  37  12 E8        30.08F

$$
NMZ524>526-539-540-252300-
SOUTHCENTRAL MOUNTAINS

CITY           SKY/WX    TMP DP  RH WIND       PRES   REMARKS
RUIDOSO        NOT AVBL

$$
NMZ527>531-252300-
NORTHEAST HIGHLANDS/NORTHEAST PLAINS

CITY           SKY/WX    TMP DP  RH WIND       PRES   REMARKS
LAS VEGAS      MOSUNNY   89  42  19 CALM      30.21F
RATON          MOSUNNY   89  46  22 N21G26    30.14
CLAYTON        MOSUNNY  101  40  12 SW10G23   30.00F HX  96

$$
NMZ532>537-252300-
EASTCENTRAL PLAINS

CITY           SKY/WX    TMP DP  RH WIND       PRES   REMARKS
TUCUMCARI      SUNNY    104  44  13 SW14      29.97F HX  99
CANNON AFB     SUNNY     97  51  20 S8G25     30.05F
CLOVIS AIRPORT   N/A     97  46  17 SW13G21   30.06F

$$
NMZ028-029-538-252300-
SOUTHEAST PLAINS

CITY           SKY/WX    TMP DP  RH WIND       PRES   REMARKS
ROSWELL        SUNNY    101  44  14 SE13G21   30.00F HX  97
ARTESIA        SUNNY     99  46  16 E9        30.00F HX  95
CARLSBAD       PTSUNNY  101  45  15 E15G25    29.98F HX  97
HOBBS          MOSUNNY   97  45  16 E9        30.04F


$$


USA.gov is the U.S. government's official web portal to all federal, state and local government web resources and services.